GOES 10 (24786 NORAD) Tracking and Keplerian Element Data

This shows tracking and keplerian element data for the satellite.

Feedback or suggestion? Click here.




ElementValue
Catalog24786
NameGOES 10
Epoch Orbit10111
Epoch Day34.45396538
Epoch Year2025
RAAN24.5808
Inclination12.5351
Eccentricity0.0031082
Argument of Perigee226.5956
Mean Anonmoly330.2629
Mean Motion0.99122151
Decay Rate-1.22E-06
L11 24786U 97019A 25034.45396538 -.00000122 00000+0 00000+0 0 9994
L22 24786 12.5351 24.5808 0031082 226.5956 330.2629 0.99122151101111



Live tracking and technical data element details for GOES 10 (NORAD 24786). GOES 10 can be tracked NOW for your location showing map with azimuth and elevation plus other details from your city location.







IsCatalogInMostPopularTable: catalog: 24786, numindb: 316
Update: records affected: 1



GetName: 24786 GOES 10

Hit Count: updated at: Sat, 24 May 2025 16:26:35 GMT